Location: Home
(42.5358°N, 72.7383°W)
Time: 09:35:52
(UTC-05:00)

Courier 1B - Pass Details

Date: 04 December 2021
Orbit: 962 x 1209 km, 28.3° (Epoch: 21 January)

Event Time Altitude Azimuth Distance (km) Brightness Sun altitude
Rises 17:41:07 0° 243° (WSW) 4,010 12.5 -14.8°
Reaches altitude 10° 17:44:29 10° 231° (SW) 3,011 11.2 -15.4°
Maximum altitude 17:50:19 26° 179° (S) 2,017 9.3 -16.5°
Drops below altitude 10° 17:55:53 10° 126° (SE) 2,863 9.6 -17.5°
Enters shadow 17:56:03 - 126° (SE) 2,907 9.6 -17.5°
Sets 17:59:00 0° 114° (ESE) 3,775 - -18.0°
